Temperature
21 20 20 20 25 28 28 28 28 28 27 26 25 25 25 25 25 23 20 20 20 20 19 19 19 19 19 19 19 19 19 19 19 19 19 19 19 19 19 19 19 19 19 19 19 18 18 18 18
20 20 21 24 29 28 27 28 28 27 26 26 25 25 25 24 22 21 20 19 19 20 19 19 19 19 19 19 19 19 19 19 19 19 19 19 19 19 19 19 19 19 19 18 18 18 18 18 18
20 21 24 28 29 28 28 28 28 27 26 26 25 25 24 23 22 21 20 19 20 19 19 19 19 19 19 19 19 19 19 19 19 19 19 19 19 19 19 18 18 18 18 18 18 18 18 18 18
21 23 26 29 29 29 28 28 28 28 27 26 26 25 23 21 21 20 20 20 20 19 19 19 19 19 19 19 19 19 19 19 19 19 19 19 19 19 19 18 18 18 18 18 18 18 18 18 18
22 27 30 30 29 29 29 28 28 28 27 26 26 25 23 20 20 20 19 20 20 19 19 19 19 19 19 19 19 19 19 19 19 19 19 19 19 19 19 18 18 18 18 18 18 18 18 18 18
26 30 30 29 29 29 29 28 28 28 27 26 26 25 22 20 20 20 20 19 20 19 19 19 19 19 19 19 19 19 19 19 19 19 19 19 19 19 19 19 18 18 18 18 18 18 18 18 18
28 31 30 30 29 29 29 28 28 28 27 26 25 25 23 21 20 20 20 19 19 19 19 19 19 19 19 19 19 19 19 19 19 19 19 19 19 19 19 18 18 18 18 18 18 18 18 18 18
27 31 31 30 30 29 29 28 27 27 27 25 25 25 23 21 20 20 20 19 19 19 19 19 19 19 19 19 19 19 19 19 19 19 19 19 19 19 18 18 18 18 18 18 18 18 18 18 18
27 31 31 31 30 30 29 29 27 27 26 25 25 24 23 21 20 20 20 20 19 19 19 19 19 19 19 19 18 18 19 19 19 18 19 18 18 18 18 18 18 18 18 18 18 18 18 18 18
30 31 31 31 31 31 29 29 28 27 27 26 24 23 21 21 21 21 21 20 20 19 19 19 19 19 19 19 19 18 18 18 18 18 18 18 18 18 18 18 18 18 18 18 18 18 18 18 17
30 31 31 31 30 30 30 29 28 28 28 27 25 23 22 21 21 21 21 21 20 20 19 19 19 19 19 19 19 19 19 18 18 18 18 18 18 18 18 18 18 18 18 18 18 18 18 18 17
31 31 31 30 30 30 30 29 28 28 27 26 25 23 22 22 22 21 21 21 20 20 19 19 19 19 19 19 19 19 19 19 19 18 18 18 18 18 18 18 18 18 18 18 18 18 18 17 17
31 31 30 30 30 29 29 29 28 27 26 25 24 23 23 23 22 21 21 20 20 20 19 19 19 19 19 19 19 19 19 19 19 18 18 18 18 18 18 18 18 18 18 18 18 18 18 17 17
31 31 30 30 30 29 29 29 28 27 26 25 24 24 23 23 22 21 21 20 20 20 19 19 19 19 19 19 19 19 19 19 19 18 18 18 18 18 18 18 18 18 18 18 18 18 18 17 17
30 31 31 31 30 30 30 29 29 27 26 25 25 24 23 23 22 21 21 20 20 20 19 19 19 19 19 19 19 19 19 19 19 19 18 18 18 18 18 18 18 18 18 18 18 18 18 17 17
32 32 31 31 31 30 30 29 29 27 26 26 25 24 23 23 22 22 21 21 20 20 19 19 19 19 19 19 19 19 19 19 19 19 18 18 18 18 18 18 18 18 18 18 18 18 18 18 17
32 32 31 31 31 31 31 30 29 27 27 27 26 25 24 23 22 22 21 21 20 20 20 20 19 19 19 19 19 19 19 19 18 18 18 18 18 18 18 18 18 18 18 18 18 18 18 18 18
31 32 31 31 31 31 31 30 30 28 28 27 26 26 25 24 23 22 21 21 20 20 20 20 20 19 19 19 19 19 19 19 18 18 18 18 18 18 18 18 18 18 18 18 18 18 18 17 17
32 32 31 31 31 31 30 30 30 29 28 28 27 26 25 24 24 22 22 21 20 20 20 20 20 20 19 19 19 19 19 19 18 18 18 18 18 18 18 18 18 18 18 18 18 18 18 17 17
31 31 31 31 31 31 30 30 30 29 28 28 27 26 26 25 24 23 22 21 21 20 20 20 20 20 19 19 19 19 19 19 19 19 18 18 18 18 18 18 18 18 18 18 18 18 18 18 17
31 31 31 31 31 31 30 30 30 30 29 28 27 27 26 25 24 23 22 21 21 21 20 20 20 20 20 19 19 19 19 19 19 19 18 18 18 18 18 18 18 18 18 18 18 18 17 18 17
31 32 31 30 31 31 31 30 30 30 29 29 28 27 26 25 25 23 22 22 21 21 21 20 20 20 20 20 19 19 19 19 19 19 19 19 19 18 18 18 18 18 18 18 18 18 17 17 18
31 31 31 31 31 31 31 31 31 30 30 30 29 28 27 26 25 24 23 22 22 21 21 20 20 20 20 20 19 19 19 19 19 19 19 19 19 19 18 18 18 18 18 18 18 18 17 17 18
31 31 30 31 31 30 30 30 30 31 30 30 30 28 27 26 25 24 23 22 22 21 21 21 20 20 20 20 20 20 19 19 19 19 19 19 19 19 18 18 18 18 18 18 18 18 18 17 17
31 31 30 30 30 30 30 30 30 31 30 30 30 28 27 26 25 24 23 22 22 21 21 21 20 20 20 20 20 19 19 19 19 19 19 19 19 19 18 18 18 18 18 18 18 18 18 17 17
31 31 30 29 30 30 30 30 30 30 29 29 29 28 27 26 26 25 24 23 22 22 21 21 20 20 20 20 20 20 20 19 19 19 19 19 18 19 18 18 18 18 18 18 18 17 17 17 17
30 31 32 31 30 30 30 30 30 30 30 29 29 28 27 27 26 25 24 23 22 22 21 21 20 20 20 20 20 20 20 19 19 19 19 18 18 18 18 18 18 18 18 18 18 17 17 17 17
31 31 31 30 29 29 29 30 30 30 30 30 29 28 27 26 26 25 24 23 23 22 21 21 20 20 20 20 20 20 20 19 19 19 19 19 19 18 18 18 18 18 18 18 17 17 17 17 17
30 30 30 30 30 29 29 30 31 30 30 29 29 28 27 26 26 25 24 23 23 22 21 20 20 20 20 20 20 20 19 19 19 19 19 19 18 18 18 18 18 18 18 17 17 17 17 17 17
30 30 30 29 29 29 29 30 30 30 30 29 28 27 26 26 25 25 24 23 22 22 21 20 20 20 20 20 20 20 19 19 19 19 19 19 18 18 18 18 18 17 17 17 17 17 17 17 16
Wind_Speed
10 7 4 4 3 4 11 10 9 8 7 8 7 7 8 9 7 5 4 5 5 6 7 9 8 8 9 10 10 11 11 11 11 12 12 12 11 11 12 13 13 13 14 14 14 14 13 13 12
6 4 4 4 3 9 11 9 10 10 7 5 6 7 8 8 8 5 5 5 4 5 7 9 9 8 9 10 10 11 11 10 11 11 12 11 12 11 11 12 13 13 13 13 13 13 13 12 12
5 4 3 1 8 10 9 8 8 8 6 4 5 6 6 6 6 4 5 4 5 6 8 10 9 9 9 10 10 10 11 10 10 11 11 11 11 11 12 12 12 13 13 13 13 13 13 13 12
4 4 3 3 12 11 8 7 6 6 6 6 5 6 6 6 4 6 6 4 6 6 8 10 9 9 9 9 9 10 10 10 10 10 10 10 11 11 12 12 12 13 13 12 13 13 13 12 11
4 3 2 9 12 10 8 6 5 6 6 7 6 8 7 7 7 7 6 5 7 7 8 10 9 9 8 8 9 9 9 10 10 10 10 10 10 10 10 10 11 12 12 12 12 12 12 12 11
3 2 5 10 11 8 7 5 5 7 7 7 6 7 6 6 6 6 6 6 6 7 7 9 10 9 8 8 8 9 9 9 9 9 9 9 10 10 9 10 11 11 11 11 11 11 11 11 10
3 3 7 9 9 9 7 5 5 6 7 6 4 6 6 6 6 6 6 6 6 7 6 7 8 10 10 9 8 8 9 8 9 9 9 9 9 9 9 9 10 10 10 10 10 11 10 10 9
4 1 7 8 8 9 6 4 5 5 7 6 3 4 6 7 6 6 6 7 7 6 5 5 6 7 8 10 9 8 8 8 8 8 8 9 10 9 9 9 10 10 10 10 10 10 10 9 9
4 1 7 8 7 7 5 5 5 5 7 6 6 7 9 10 8 7 7 7 7 6 5 5 6 7 7 7 9 9 9 8 8 8 8 6 7 8 8 10 11 9 9 9 9 10 9 9 9
2 4 8 6 5 5 4 4 4 4 6 7 8 10 11 10 8 7 7 7 6 6 5 5 6 7 7 6 7 6 6 7 5 6 6 6 6 6 8 11 10 9 9 9 9 9 9 7 6
2 4 5 4 4 3 4 4 4 4 5 5 8 10 10 9 8 6 6 6 6 6 6 5 6 6 5 5 5 4 5 5 6 6 6 6 5 6 6 6 8 8 8 6 8 8 5 4 3
1 3 3 2 3 3 4 4 4 4 6 6 8 11 10 9 8 6 6 5 6 6 5 5 5 5 4 4 4 4 4 4 4 6 5 5 3 3 4 3 4 4 4 4 3 3 4 4 3
1 2 3 2 3 4 4 4 5 5 5 7 10 10 10 9 7 6 6 5 5 5 5 5 5 5 4 4 2 4 3 3 4 4 4 3 3 3 3 3 3 2 3 4 3 3 4 4 4
3 2 3 3 4 5 5 5 3 5 6 9 10 9 8 8 7 6 5 5 5 5 5 5 4 4 4 4 3 2 3 3 3 3 4 3 3 3 2 3 2 2 2 2 2 3 3 2 2
1 2 4 3 2 3 3 4 3 6 8 9 9 8 8 7 7 6 6 5 5 5 5 4 5 4 4 3 2 3 2 3 2 3 4 3 3 3 2 2 2 2 2 3 3 3 2 2 2
4 3 2 3 1 2 4 3 6 7 8 8 9 8 8 7 7 6 6 5 5 5 5 4 4 5 4 2 2 2 2 2 2 2 3 3 2 2 1 1 2 2 2 2 2 2 2 2 2
4 1 2 3 2 2 3 1 5 7 7 8 8 9 8 8 7 7 6 6 6 6 6 6 4 4 3 3 2 2 2 1 1 2 2 2 2 2 2 1 2 2 2 2 2 2 1 1 1
1 1 1 1 2 2 2 0 4 6 7 7 8 8 8 8 8 8 7 7 7 7 6 6 6 5 4 3 3 2 1 1 1 1 2 1 1 1 1 2 2 2 2 2 1 2 1 1 1
3 3 2 1 0 2 2 1 3 6 7 7 7 8 8 8 7 8 7 7 7 7 7 6 6 5 4 3 2 2 2 1 1 1 2 1 1 1 1 1 2 2 2 2 2 2 2 2 1
5 4 2 0 1 2 2 2 2 5 7 7 7 8 8 9 8 8 8 7 8 8 7 7 6 6 5 3 2 1 1 1 1 0 1 1 1 1 1 1 2 2 1 2 2 2 2 2 2
6 5 3 2 2 4 4 3 4 5 6 7 7 7 7 8 9 9 9 8 8 8 8 7 6 6 5 4 3 2 2 2 1 1 1 1 1 1 0 1 1 1 2 2 3 3 3 2 2
6 3 4 5 6 3 4 3 3 5 6 7 8 8 8 8 9 9 9 10 9 9 8 8 7 7 6 5 4 4 3 2 1 1 1 1 1 1 1 1 1 2 2 2 3 3 3 3 3
4 2 4 6 7 6 6 5 2 5 5 7 7 8 8 8 9 9 9 9 9 9 8 8 8 7 7 6 6 5 4 3 2 2 1 2 2 2 2 1 2 2 2 2 3 2 3 3 3
3 4 6 8 8 7 4 6 2 1 2 3 6 7 8 8 9 9 9 8 8 8 8 8 8 7 7 7 6 6 5 3 3 2 2 3 2 2 2 2 2 3 2 3 3 4 4 4 3
7 7 6 7 6 4 2 5 2 2 1 2 3 6 8 8 8 9 9 9 9 9 9 8 8 8 7 7 6 6 5 5 5 4 3 3 2 2 1 2 2 2 3 3 3 3 4 4 4
7 8 7 6 6 3 3 4 1 1 0 1 3 5 7 8 8 9 9 9 9 9 9 9 9 8 8 7 6 5 5 5 4 4 3 3 3 2 2 2 3 3 3 3 3 3 3 3 4
7 8 8 8 8 7 4 3 2 2 2 3 4 5 6 7 7 8 8 8 9 9 9 9 9 8 8 7 7 6 6 5 4 3 4 3 3 3 2 3 3 3 3 3 3 3 3 3 4
6 6 6 7 6 7 6 5 2 2 1 2 4 5 5 6 7 7 7 8 8 8 9 9 9 8 8 7 7 6 6 6 5 4 3 3 3 2 3 3 3 3 4 4 4 4 3 4 4
7 7 6 7 7 8 6 2 2 1 1 1 2 3 4 5 6 7 7 7 8 8 8 8 8 8 8 8 7 6 6 6 5 5 4 4 3 3 3 3 4 4 4 4 4 4 4 4 4
7 8 9 8 7 8 9 3 3 1 0 0 0 1 2 3 5 6 7 7 7 8 7 7 7 8 7 7 7 6 6 6 6 5 5 4 4 4 4 4 4 4 4 4 4 5 4 5 5
Wind_Direction
184 186 209 238 234 75 57 50 45 48 55 55 52 51 54 42 32 65 72 60 64 78 89 99 96 98 100 105 108 111 113 115 117 119 122 126 131 136 139 142 144 144 145 144 144 141 139 136 135
176 187 230 248 22 66 61 53 55 54 68 76 65 60 64 63 59 78 85 75 75 77 87 86 94 99 103 108 111 111 112 115 116 116 120 121 124 128 135 139 141 141 142 143 142 140 138 138 136
186 226 266 332 49 54 58 56 64 74 69 57 63 53 50 60 62 73 84 88 82 82 88 87 91 94 99 106 110 111 111 114 117 116 119 122 123 126 129 130 134 136 136 136 139 141 142 142 140
217 229 232 62 65 59 57 63 71 77 72 60 71 74 68 55 55 85 92 89 87 91 96 96 92 96 99 104 108 109 109 111 115 118 119 122 124 126 128 130 133 135 135 136 136 138 142 143 140
246 260 93 75 68 65 63 67 70 56 61 67 71 83 81 72 82 94 94 86 88 89 93 102 98 98 101 104 107 109 109 110 111 114 117 120 123 126 128 132 132 136 137 137 138 138 139 141 138
261 265 64 70 71 70 68 68 69 63 75 79 81 88 85 96 94 95 91 85 87 89 94 108 115 110 106 103 102 107 108 109 109 110 112 117 121 123 126 134 134 137 138 140 145 143 142 142 143
320 30 63 69 75 73 63 60 53 60 71 67 73 88 106 107 99 100 95 89 83 87 96 103 119 126 129 119 111 106 104 106 110 113 115 117 119 122 125 130 133 133 137 140 144 146 147 146 146
304 350 72 68 66 69 73 69 59 55 70 76 69 85 111 122 120 112 105 95 85 83 88 100 110 120 129 126 120 113 109 110 114 117 119 128 133 130 132 136 133 132 137 140 140 140 144 146 146
275 23 59 55 54 73 88 86 83 80 89 79 70 77 105 126 127 120 108 97 92 84 80 81 97 115 118 114 122 129 129 125 139 134 137 146 127 120 125 113 125 131 134 136 137 139 144 151 153
296 37 52 41 45 72 91 81 97 111 97 96 98 102 118 131 131 125 116 110 104 95 88 80 87 102 108 110 118 122 123 119 116 108 119 122 113 113 110 120 127 131 137 143 143 147 162 177 159
350 21 37 45 54 74 97 93 90 96 84 101 125 132 137 134 132 126 117 112 105 105 96 94 95 92 96 109 113 108 109 110 111 107 110 112 117 118 115 126 136 140 151 145 147 162 157 147 141
350 20 26 51 73 89 95 95 85 69 66 98 127 138 141 141 138 132 122 113 109 106 105 97 101 98 90 90 108 113 107 107 108 114 112 111 108 108 107 113 116 127 127 134 148 148 132 138 157
10 29 53 85 113 115 114 101 84 84 93 119 131 139 143 143 140 133 129 129 124 119 113 106 105 106 109 109 107 107 103 102 107 107 107 111 117 112 116 109 114 123 130 141 141 135 137 150 165
17 60 102 110 123 132 121 108 105 104 125 134 142 146 147 148 148 144 147 144 140 133 126 120 122 120 118 120 116 112 115 118 106 109 105 106 104 99 108 118 119 118 122 120 134 134 143 145 144
222 155 127 118 148 156 161 109 113 132 143 146 150 151 152 155 158 161 162 160 153 149 143 140 138 130 126 122 127 130 130 125 115 109 110 108 113 112 129 123 135 119 128 133 136 137 145 156 166
217 210 130 111 148 189 236 87 116 146 159 160 159 160 163 164 171 172 170 167 160 157 154 157 152 140 141 136 129 126 122 113 115 115 112 115 116 131 144 123 122 134 143 139 149 164 157 157 175
208 206 76 113 143 196 239 80 130 163 173 172 171 171 171 170 176 178 182 176 172 169 165 163 163 158 151 146 148 137 131 130 125 117 114 117 131 145 165 137 132 169 155 165 182 154 175 173 185
305 316 57 68 135 225 238 161 147 176 185 185 183 182 181 179 178 179 186 181 177 174 173 171 167 167 169 163 156 151 134 145 140 131 115 122 138 150 183 170 160 179 167 168 166 166 187 208 232
296 287 316 20 144 250 259 252 177 183 195 193 192 189 187 185 178 175 181 183 181 179 178 179 179 171 178 182 186 166 160 154 139 137 114 129 125 146 211 197 161 196 176 186 188 187 186 212 222
256 256 261 100 141 262 273 265 198 188 200 202 198 195 194 188 182 181 182 183 185 183 184 184 188 186 192 186 195 183 163 177 138 117 118 175 174 213 200 190 212 196 186 195 195 206 237 235 238
251 267 279 280 249 223 250 225 189 187 196 200 207 204 200 197 190 186 187 188 188 188 188 188 188 187 195 192 190 184 176 203 177 166 167 188 202 210 276 203 247 226 229 206 212 213 227 247 244
253 273 268 254 254 246 258 281 178 189 197 201 205 204 205 198 193 188 186 189 192 191 187 187 186 188 190 190 197 202 201 199 191 208 181 183 203 216 225 236 260 256 250 222 231 213 229 238 248
277 277 255 255 263 261 245 274 178 182 212 208 203 203 202 196 191 187 187 187 190 189 187 186 186 188 188 192 197 208 215 209 205 201 176 226 206 218 230 238 248 248 252 244 253 230 241 237 255
217 228 229 238 249 251 261 272 255 178 224 219 200 199 200 194 187 184 183 181 186 185 185 185 184 189 189 193 199 208 215 224 234 234 223 226 213 210 216 232 245 252 260 248 246 238 228 242 254
224 240 238 233 235 248 235 265 293 7 290 258 210 192 191 187 184 182 183 183 186 186 186 184 182 187 190 193 201 207 214 217 223 240 237 249 254 235 229 249 245 259 255 253 254 245 255 240 243
236 254 262 273 273 256 208 253 302 26 301 227 202 183 179 183 185 184 185 185 187 187 187 187 185 188 191 194 197 203 208 218 220 224 246 244 262 266 265 248 249 257 257 254 247 251 246 239 245
234 244 270 270 270 270 255 251 226 206 199 185 177 173 177 181 181 182 183 185 185 186 186 187 185 187 192 195 193 197 205 220 225 222 234 246 257 260 239 243 249 254 253 254 251 255 255 242 247
255 249 250 257 268 267 249 251 241 207 216 172 172 173 172 178 179 177 180 183 182 181 181 183 185 188 191 195 199 197 202 208 214 225 233 248 257 272 266 251 247 249 246 242 245 246 241 246 252
208 221 241 257 268 273 269 273 51 190 251 219 183 167 172 182 180 178 180 179 177 176 176 181 185 189 194 197 199 204 202 201 201 207 219 227 237 239 240 245 245 244 247 245 243 250 246 246 251
242 240 239 249 252 259 272 268 90 52 48 19 62 153 173 184 183 178 176 175 177 179 178 179 186 191 194 195 196 200 199 202 206 208 213 217 226 233 232 238 239 244 245 245 244 248 250 249 251
Height
1506 1506 1507 1508 1503 1497 1503 1501 1498 1498 1501 1505 1506 1505 1505 1507 1509 1518 1519 1517 1517 1517 1516 1514 1514 1514 1514 1514 1515 1515 1515 1516 1516 1517 1518 1519 1520 1522 1523 1524 1526 1528 1530 1531 1533 1535 1536 1538 1540
1509 1508 1509 1506 1496 1504 1507 1501 1501 1503 1506 1507 1507 1508 1508 1511 1515 1518 1518 1518 1518 1518 1518 1516 1515 1516 1516 1517 1517 1518 1518 1519 1520 1520 1521 1522 1523 1524 1525 1526 1527 1529 1531 1532 1534 1535 1537 1539 1541
1509 1509 1509 1499 1498 1504 1508 1503 1503 1506 1508 1508 1509 1510 1512 1516 1518 1519 1520 1520 1519 1519 1519 1517 1517 1518 1518 1519 1520 1520 1521 1521 1522 1523 1524 1525 1525 1526 1527 1528 1529 1530 1532 1532 1533 1535 1537 1540 1542
1511 1511 1507 1499 1503 1502 1503 1503 1505 1506 1508 1509 1510 1512 1516 1520 1521 1521 1521 1521 1521 1520 1520 1519 1519 1519 1520 1521 1521 1522 1523 1524 1524 1525 1526 1527 1528 1528 1529 1530 1530 1532 1533 1534 1535 1536 1538 1540 1542
1511 1508 1499 1500 1502 1502 1503 1505 1506 1505 1507 1510 1511 1514 1519 1522 1522 1522 1522 1522 1522 1521 1522 1521 1520 1521 1521 1522 1523 1524 1525 1526 1527 1527 1528 1529 1530 1530 1531 1531 1532 1533 1535 1536 1537 1538 1540 1541 1543
1510 1502 1500 1506 1505 1503 1504 1507 1507 1507 1509 1512 1513 1515 1521 1524 1523 1523 1523 1523 1523 1522 1522 1521 1521 1522 1523 1524 1525 1526 1527 1528 1529 1529 1530 1531 1532 1532 1532 1532 1534 1535 1536 1537 1538 1540 1541 1543 1545
1509 1499 1501 1502 1504 1504 1506 1508 1508 1509 1511 1514 1515 1516 1521 1524 1524 1524 1524 1524 1524 1524 1523 1523 1523 1523 1524 1525 1527 1528 1528 1529 1530 1531 1532 1533 1533 1534 1534 1534 1535 1537 1537 1539 1540 1541 1543 1544 1546
1509 1500 1498 1500 1504 1506 1507 1509 1511 1511 1513 1517 1517 1517 1521 1525 1525 1525 1525 1525 1525 1524 1524 1524 1523 1524 1526 1527 1528 1529 1530 1531 1532 1533 1533 1534 1535 1535 1535 1536 1537 1538 1539 1540 1541 1543 1544 1545 1547
1509 1501 1502 1502 1503 1504 1507 1509 1513 1514 1516 1518 1519 1520 1523 1525 1526 1526 1527 1527 1526 1525 1525 1524 1523 1524 1527 1529 1530 1531 1532 1533 1534 1534 1535 1536 1537 1538 1537 1537 1538 1539 1540 1541 1543 1544 1545 1546 1547
1506 1502 1503 1502 1502 1504 1508 1510 1512 1514 1515 1518 1521 1523 1525 1526 1527 1527 1528 1528 1528 1527 1527 1526 1526 1527 1529 1531 1532 1533 1535 1535 1535 1536 1536 1537 1538 1539 1539 1539 1540 1540 1541 1543 1544 1545 1546 1548 1549
1505 1503 1503 1504 1505 1506 1508 1510 1512 1512 1514 1517 1521 1524 1526 1527 1528 1528 1529 1529 1530 1530 1529 1529 1529 1529 1531 1533 1534 1535 1536 1536 1537 1537 1537 1538 1539 1540 1541 1541 1542 1542 1543 1544 1545 1546 1548 1549 1549
1506 1504 1505 1506 1507 1508 1509 1511 1512 1514 1517 1519 1522 1524 1526 1528 1529 1530 1530 1531 1531 1531 1531 1531 1531 1532 1533 1534 1536 1537 1537 1538 1539 1538 1539 1540 1540 1541 1542 1542 1543 1544 1544 1545 1546 1547 1547 1548 1549
1505 1505 1506 1507 1508 1509 1510 1511 1514 1516 1519 1521 1523 1525 1527 1528 1530 1531 1532 1533 1533 1533 1533 1533 1533 1533 1534 1535 1537 1538 1538 1540 1540 1540 1540 1541 1542 1542 1543 1543 1543 1545 1545 1546 1546 1547 1547 1548 1548
1506 1506 1506 1507 1508 1510 1510 1512 1514 1518 1520 1522 1524 1526 1528 1529 1531 1532 1533 1534 1534 1535 1535 1535 1535 1535 1536 1537 1538 1539 1540 1540 1541 1542 1542 1542 1543 1543 1543 1544 1544 1545 1546 1546 1546 1547 1547 1548 1548
1507 1504 1505 1506 1507 1509 1509 1511 1513 1517 1520 1522 1524 1527 1529 1530 1531 1532 1533 1534 1535 1535 1536 1536 1537 1537 1537 1538 1540 1541 1542 1542 1542 1543 1542 1542 1543 1543 1544 1544 1545 1545 1546 1546 1546 1547 1547 1547 1548
1502 1501 1504 1506 1506 1508 1509 1513 1513 1517 1519 1521 1524 1526 1528 1530 1531 1533 1533 1534 1535 1536 1536 1537 1539 1539 1539 1539 1540 1542 1542 1543 1543 1543 1543 1543 1543 1543 1544 1544 1545 1545 1546 1546 1546 1547 1547 1547 1547
1500 1503 1505 1505 1505 1506 1506 1509 1512 1516 1517 1520 1522 1525 1527 1529 1531 1532 1533 1534 1535 1536 1536 1537 1539 1539 1540 1540 1541 1542 1542 1543 1544 1544 1544 1544 1544 1544 1544 1544 1544 1545 1546 1546 1547 1547 1547 1547 1547
1505 1503 1504 1505 1503 1504 1505 1506 1509 1514 1515 1518 1521 1523 1525 1527 1530 1531 1532 1534 1535 1536 1536 1537 1538 1539 1540 1541 1541 1542 1543 1543 1544 1544 1544 1544 1544 1544 1544 1544 1544 1545 1546 1546 1546 1546 1546 1546 1546
1501 1503 1505 1504 1502 1503 1504 1505 1507 1511 1513 1515 1518 1521 1523 1526 1528 1530 1531 1533 1534 1535 1536 1537 1538 1539 1540 1541 1542 1543 1544 1544 1544 1544 1544 1544 1544 1544 1544 1545 1544 1545 1545 1545 1545 1546 1546 1546 1545
1501 1503 1504 1503 1502 1504 1504 1504 1503 1508 1511 1513 1515 1518 1521 1523 1526 1528 1530 1531 1533 1534 1535 1536 1537 1539 1540 1541 1541 1542 1543 1544 1544 1544 1544 1544 1544 1544 1544 1544 1544 1544 1544 1544 1544 1544 1545 1546 1545
1501 1502 1503 1505 1503 1501 1503 1505 1503 1505 1508 1511 1513 1516 1518 1521 1523 1526 1528 1530 1531 1532 1534 1535 1536 1538 1539 1540 1541 1542 1542 1543 1544 1544 1544 1543 1543 1543 1543 1543 1543 1543 1544 1544 1543 1543 1544 1545 1545
1503 1498 1501 1503 1504 1503 1504 1511 1502 1501 1504 1507 1510 1512 1515 1518 1521 1523 1525 1527 1529 1531 1532 1534 1535 1536 1537 1539 1540 1542 1542 1543 1544 1544 1544 1543 1543 1543 1543 1542 1542 1542 1543 1542 1542 1543 1543 1543 1543
1500 1499 1500 1501 1501 1503 1500 1505 1501 1497 1501 1501 1505 1509 1512 1515 1518 1520 1523 1525 1528 1530 1531 1533 1534 1535 1536 1537 1539 1540 1541 1542 1543 1543 1542 1542 1543 1542 1542 1541 1541 1541 1541 1541 1540 1540 1540 1541 1541
1499 1501 1501 1499 1498 1511 1503 1506 1506 1494 1497 1497 1501 1506 1509 1512 1515 1518 1521 1523 1526 1528 1529 1531 1532 1533 1534 1536 1537 1538 1539 1540 1541 1541 1542 1542 1542 1541 1541 1540 1540 1539 1539 1539 1538 1538 1538 1538 1539
1498 1503 1510 1513 1511 1509 1499 1504 1503 1494 1495 1496 1499 1502 1506 1510 1513 1516 1519 1521 1523 1525 1527 1529 1530 1531 1533 1534 1535 1536 1537 1538 1539 1539 1540 1540 1541 1540 1539 1539 1538 1538 1537 1536 1536 1536 1536 1536 1536
1496 1497 1511 1520 1515 1504 1502 1504 1497 1493 1496 1497 1499 1501 1504 1508 1510 1513 1516 1519 1521 1523 1525 1526 1528 1529 1531 1532 1533 1534 1535 1536 1537 1537 1538 1538 1538 1538 1537 1537 1536 1536 1535 1535 1534 1534 1534 1533 1533
1496 1496 1491 1499 1503 1508 1502 1498 1494 1492 1494 1496 1498 1500 1503 1505 1508 1511 1514 1516 1518 1520 1522 1524 1525 1527 1528 1530 1531 1531 1532 1533 1534 1535 1535 1535 1535 1535 1535 1535 1534 1534 1533 1533 1532 1532 1532 1532 1532
1493 1492 1494 1500 1515 1516 1507 1501 1497 1494 1493 1493 1496 1499 1501 1504 1507 1509 1512 1514 1517 1518 1520 1521 1523 1524 1526 1527 1528 1529 1530 1530 1531 1532 1532 1532 1532 1532 1532 1532 1532 1531 1531 1531 1530 1530 1530 1529 1529
1496 1496 1496 1496 1498 1510 1513 1503 1487 1491 1492 1493 1495 1498 1501 1503 1505 1508 1510 1513 1515 1517 1518 1519 1521 1522 1523 1524 1525 1526 1527 1527 1528 1528 1529 1529 1529 1529 1529 1529 1529 1529 1529 1528 1528 1528 1527 1527 1527
1490 1491 1493 1502 1504 1501 1503 1501 1487 1490 1492 1494 1496 1498 1501 1503 1504 1506 1509 1511 1513 1515 1516 1517 1518 1520 1521 1522 1522 1523 1523 1524 1525 1525 1526 1526 1526 1526 1526 1526 1526 1526 1526 1526 1525 1525 1524 1524 1524